Temp
68 69 68 69 68 67 66 68 70 71 71 71 71 70 71 70 69 69 69 69 69 69 69 69 69 69 69 69 68 71 71 68 67 68 68 69 69 69 68 69 69 71
69 69 69 69 68 67 67 68 70 71 70 70 71 70 69 68 68 69 69 68 69 69 69 69 69 69 69 70 68 69 69 68 67 68 67 67 68 68 68 68 69 70
69 68 68 68 67 66 66 68 69 71 70 69 68 69 68 68 67 68 69 69 69 68 68 68 68 69 69 69 69 70 70 68 67 68 68 68 67 69 68 68 69 69
69 69 69 69 68 67 67 67 67 68 68 67 68 68 68 67 68 67 67 68 69 68 68 69 69 69 70 69 69 70 69 69 68 68 67 67 68 69 68 69 69 70
68 68 69 69 68 68 67 67 67 68 69 68 66 67 68 67 68 68 68 68 69 69 68 68 69 68 68 69 70 69 69 68 67 69 69 67 68 68 68 69 69 69
67 69 69 68 67 67 67 68 68 69 68 66 67 68 68 69 69 69 69 69 69 69 68 69 69 68 70 69 70 70 70 70 68 70 70 69 68 69 70 69 69 69
66 66 66 67 67 67 68 68 68 69 69 69 68 67 68 69 69 70 71 70 70 70 71 69 69 68 69 70 70 69 69 69 70 72 71 70 69 67 69 70 70 70
66 66 66 66 66 67 68 68 68 68 68 68 68 68 69 70 70 69 70 71 71 71 71 71 71 70 70 71 71 69 68 69 70 72 71 70 69 69 68 69 68 70
66 66 66 66 66 66 66 67 67 68 69 69 69 68 69 70 70 70 70 72 71 70 71 71 72 71 70 70 70 71 71 69 69 71 71 71 70 70 71 70 69 68
66 66 65 65 65 65 65 65 66 66 68 69 69 69 69 68 70 71 70 71 70 71 71 71 71 71 71 72 72 72 72 72 71 71 72 72 72 72 72 71 70 68
64 65 65 65 65 65 64 64 65 66 67 69 68 68 68 68 69 70 70 71 70 71 72 72 72 72 71 71 71 72 72 72 72 72 71 71 71 71 69 72 72 71
64 65 66 65 65 64 64 64 64 66 67 68 70 69 68 69 69 70 71 72 72 73 73 73 73 73 73 73 73 71 71 71 71 71 71 71 71 71 72 72 71 71
64 62 61 63 64 64 64 64 65 65 67 68 69 69 69 69 70 70 70 72 73 72 72 72 72 72 72 71 72 72 71 71 70 70 69 69 70 71 71 70 71 71
63 62 63 63 64 65 65 64 65 65 67 68 68 69 69 71 71 71 70 71 71 72 71 70 69 69 71 70 70 70 69 69 70 69 69 69 68 68 69 70 70 70
62 63 62 62 64 65 66 65 66 66 66 67 67 68 69 71 72 72 70 70 70 70 69 67 67 67 65 64 64 65 66 67 69 71 70 69 68 68 67 67 69 68
60 61 62 63 63 64 65 66 66 67 67 67 67 68 69 69 70 70 70 69 69 69 67 65 66 65 60 54 57 66 66 67 67 69 70 70 68 67 66 66 67 67
62 62 62 61 60 60 61 63 65 65 66 67 67 67 66 67 68 68 68 69 70 69 66 63 64 63 51 47 48 52 65 65 65 65 68 69 69 68 67 67 67 68
61 62 61 59 58 57 57 57 58 60 62 64 64 65 65 66 66 66 66 67 67 68 66 64 65 52 45 45 45 45 51 65 67 66 66 69 70 69 69 68 68 67
60 60 61 61 60 58 57 57 57 58 59 61 63 63 64 64 64 64 65 66 67 66 65 64 65 47 44 43 44 43 43 51 70 69 68 68 69 70 70 69 68 67
61 61 61 60 60 59 59 59 59 57 57 59 60 61 62 62 62 63 64 65 65 64 64 64 65 47 43 42 43 42 42 46 67 68 69 70 69 69 68 68 67 68
57 57 58 60 60 60 59 58 58 58 57 56 60 61 62 61 62 62 62 63 64 64 64 63 58 41 42 42 42 42 41 43 61 65 67 68 68 68 68 68 68 67
53 53 56 58 59 59 59 58 56 56 56 56 57 59 59 61 61 63 62 62 62 63 63 64 57 40 41 41 41 41 40 53 60 63 65 67 67 66 67 67 67 67
53 53 53 55 57 58 58 56 56 56 56 58 59 59 59 60 60 61 62 63 62 62 63 62 62 45 40 41 41 40 45 58 61 63 64 64 65 65 65 65 65 66
53 53 53 53 54 55 55 56 57 57 57 57 59 60 60 60 60 61 61 61 61 62 62 62 63 51 40 40 40 39 47 60 62 63 63 63 63 63 64 64 64 55
54 54 54 54 54 54 54 54 54 56 59 61 60 62 61 62 62 62 61 60 60 60 54 57 62 53 39 40 40 39 47 57 61 63 63 63 63 62 61 60 61 57
55 55 55 55 56 55 55 55 56 57 57 58 58 59 59 59 60 60 59 58 58 58 58 59 59 59 47 38 40 40 41 54 60 62 63 62 62 63 61 60 59 61
MSLP
1017.15 1017.23 1017.47 1017.63 1017.71 1017.87 1018.11 1018.31 1018.31 1018.43 1018.55 1018.67 1018.83 1019.11 1019.27 1019.43 1019.67 1019.83 1019.99 1020.15 1020.27 1020.39 1020.47 1020.55 1020.59 1020.63 1020.67 1020.71 1020.79 1020.75 1020.83 1021.07 1021.23 1021.31 1021.31 1021.35 1021.43 1021.59 1021.79 1021.95 1021.99 1021.99
1016.87 1016.99 1017.19 1017.39 1017.71 1017.99 1018.11 1018.11 1018.23 1018.31 1018.63 1018.75 1018.83 1019.11 1019.35 1019.55 1019.83 1019.91 1020.11 1020.31 1020.43 1020.55 1020.63 1020.71 1020.75 1020.79 1020.83 1020.83 1020.95 1020.95 1021.03 1021.15 1021.35 1021.39 1021.43 1021.51 1021.59 1021.67 1021.83 1021.91 1021.99 1022.07
1016.63 1016.87 1017.11 1017.35 1017.67 1018.07 1018.19 1018.23 1018.27 1018.35 1018.59 1018.87 1019.07 1019.19 1019.47 1019.67 1019.87 1020.03 1020.19 1020.27 1020.47 1020.67 1020.79 1020.83 1020.87 1020.91 1020.95 1021.03 1021.07 1021.07 1021.11 1021.23 1021.39 1021.47 1021.47 1021.63 1021.67 1021.67 1021.83 1021.91 1021.99 1022.11
1016.51 1016.67 1016.95 1017.19 1017.51 1017.91 1018.15 1018.35 1018.51 1018.59 1018.79 1019.03 1019.19 1019.31 1019.47 1019.71 1019.87 1020.11 1020.27 1020.39 1020.47 1020.67 1020.83 1020.87 1020.95 1020.99 1021.03 1021.15 1021.19 1021.23 1021.35 1021.39 1021.51 1021.55 1021.67 1021.75 1021.75 1021.75 1021.87 1021.91 1022.03 1022.11
1016.51 1016.79 1016.99 1017.23 1017.55 1017.79 1018.07 1018.27 1018.51 1018.63 1018.79 1018.99 1019.27 1019.35 1019.47 1019.71 1019.91 1020.11 1020.31 1020.43 1020.51 1020.67 1020.83 1020.99 1021.03 1021.11 1021.19 1021.23 1021.23 1021.43 1021.59 1021.71 1021.83 1021.71 1021.71 1021.87 1021.87 1021.87 1021.99 1021.99 1022.11 1022.27
1016.75 1016.91 1017.11 1017.31 1017.55 1017.79 1018.03 1018.19 1018.35 1018.55 1018.83 1019.11 1019.23 1019.27 1019.43 1019.59 1019.83 1020.07 1020.23 1020.39 1020.47 1020.63 1020.87 1020.95 1021.07 1021.15 1021.19 1021.27 1021.31 1021.43 1021.55 1021.71 1021.91 1021.83 1021.79 1021.95 1022.03 1021.99 1022.03 1022.07 1022.19 1022.31
1017.03 1017.15 1017.27 1017.39 1017.55 1017.67 1017.87 1018.11 1018.31 1018.47 1018.67 1018.83 1019.15 1019.35 1019.43 1019.63 1019.83 1019.99 1020.11 1020.27 1020.43 1020.59 1020.75 1020.91 1021.07 1021.19 1021.23 1021.27 1021.35 1021.55 1021.67 1021.79 1021.83 1021.79 1021.87 1022.07 1022.11 1022.27 1022.19 1022.19 1022.23 1022.35
1016.95 1017.11 1017.27 1017.51 1017.67 1017.79 1017.95 1018.19 1018.35 1018.47 1018.63 1018.87 1019.11 1019.39 1019.43 1019.59 1019.79 1019.99 1020.11 1020.23 1020.43 1020.59 1020.75 1020.83 1020.95 1021.11 1021.27 1021.27 1021.39 1021.63 1021.87 1021.91 1021.87 1021.83 1021.95 1022.11 1022.15 1022.23 1022.35 1022.35 1022.43 1022.47
1016.87 1017.11 1017.27 1017.51 1017.71 1017.87 1018.07 1018.23 1018.39 1018.51 1018.63 1018.83 1019.07 1019.39 1019.51 1019.59 1019.79 1019.99 1020.15 1020.23 1020.47 1020.63 1020.75 1020.87 1020.95 1021.15 1021.31 1021.35 1021.47 1021.55 1021.75 1021.95 1021.95 1021.91 1021.95 1022.03 1022.15 1022.27 1022.27 1022.39 1022.55 1022.67
1016.87 1017.03 1017.27 1017.55 1017.75 1017.91 1018.11 1018.31 1018.43 1018.55 1018.63 1018.79 1019.03 1019.27 1019.55 1019.75 1019.83 1019.99 1020.19 1020.35 1020.51 1020.71 1020.79 1020.91 1021.03 1021.19 1021.35 1021.35 1021.43 1021.55 1021.67 1021.79 1021.95 1022.07 1022.03 1022.03 1022.11 1022.19 1022.31 1022.39 1022.55 1022.75
1016.83 1016.99 1017.27 1017.59 1017.79 1017.95 1018.15 1018.35 1018.47 1018.59 1018.71 1018.83 1019.11 1019.35 1019.55 1019.79 1019.95 1020.03 1020.19 1020.35 1020.59 1020.67 1020.79 1020.91 1021.03 1021.15 1021.35 1021.47 1021.55 1021.55 1021.59 1021.75 1021.87 1021.99 1022.15 1022.23 1022.27 1022.35 1022.39 1022.35 1022.43 1022.59
1016.91 1017.07 1017.27 1017.55 1017.83 1017.99 1018.15 1018.27 1018.43 1018.59 1018.75 1018.91 1018.99 1019.31 1019.59 1019.71 1019.87 1020.07 1020.15 1020.31 1020.47 1020.55 1020.63 1020.79 1020.91 1021.11 1021.23 1021.39 1021.51 1021.67 1021.71 1021.79 1021.91 1022.03 1022.19 1022.31 1022.43 1022.43 1022.39 1022.43 1022.51 1022.67
1017.07 1017.23 1017.55 1017.87 1018.03 1018.15 1018.27 1018.35 1018.43 1018.59 1018.71 1018.91 1018.99 1019.19 1019.47 1019.71 1019.83 1019.99 1020.15 1020.23 1020.39 1020.51 1020.63 1020.75 1020.95 1021.11 1021.27 1021.43 1021.55 1021.63 1021.75 1021.91 1022.07 1022.19 1022.39 1022.51 1022.55 1022.51 1022.59 1022.63 1022.59 1022.67
1017.35 1017.59 1017.79 1018.03 1018.27 1018.43 1018.55 1018.59 1018.71 1018.75 1018.83 1018.91 1019.03 1019.19 1019.35 1019.51 1019.71 1019.83 1020.11 1020.27 1020.39 1020.55 1020.71 1020.91 1021.11 1021.27 1021.39 1021.55 1021.63 1021.75 1021.91 1022.03 1022.07 1022.23 1022.35 1022.55 1022.67 1022.75 1022.75 1022.75 1022.75 1022.75
1017.63 1018.03 1018.19 1018.43 1018.63 1018.55 1018.59 1018.75 1018.87 1018.95 1019.03 1019.07 1019.15 1019.23 1019.31 1019.39 1019.51 1019.67 1019.99 1020.31 1020.47 1020.59 1020.83 1021.07 1021.19 1021.31 1021.47 1021.63 1021.83 1021.95 1021.99 1022.07 1022.07 1022.11 1022.27 1022.47 1022.63 1022.79 1022.91 1022.95 1022.87 1022.91
1017.99 1018.35 1018.43 1018.63 1018.83 1018.67 1018.71 1018.79 1018.91 1019.07 1019.15 1019.27 1019.27 1019.27 1019.43 1019.55 1019.67 1019.83 1019.99 1020.23 1020.47 1020.67 1020.91 1021.19 1021.31 1021.47 1021.59 1021.71 1021.63 1021.71 1021.91 1021.95 1022.03 1022.11 1022.19 1022.35 1022.55 1022.75 1022.91 1022.99 1022.95 1022.99
1018.19 1018.39 1018.31 1018.47 1018.75 1019.07 1019.03 1019.03 1019.19 1019.31 1019.39 1019.39 1019.47 1019.55 1019.67 1019.83 1019.91 1020.03 1020.11 1020.19 1020.35 1020.63 1021.03 1021.31 1021.51 1021.71 1021.95 1022.03 1022.11 1022.07 1021.99 1022.07 1022.07 1022.15 1022.19 1022.31 1022.43 1022.59 1022.75 1022.87 1022.91 1022.91
1018.31 1018.35 1018.47 1018.75 1018.83 1018.79 1019.19 1019.51 1019.47 1019.59 1019.71 1019.71 1019.71 1019.79 1019.91 1019.99 1020.11 1020.19 1020.27 1020.35 1020.51 1020.75 1021.07 1021.35 1021.51 1021.75 1021.91 1022.11 1022.23 1022.27 1022.35 1022.23 1022.15 1022.19 1022.19 1022.19 1022.27 1022.35 1022.43 1022.59 1022.75 1022.87
1018.43 1018.55 1018.67 1018.95 1019.19 1019.35 1019.47 1019.43 1019.51 1019.71 1019.87 1019.91 1019.95 1019.95 1019.99 1020.15 1020.35 1020.43 1020.47 1020.47 1020.63 1020.87 1021.11 1021.31 1021.39 1021.71 1021.87 1022.07 1022.19 1022.31 1022.43 1022.51 1022.03 1022.03 1022.03 1022.07 1022.07 1022.11 1022.19 1022.35 1022.51 1022.67
1018.59 1018.71 1019.03 1019.27 1019.47 1019.59 1019.63 1019.71 1019.91 1020.27 1020.39 1020.31 1020.23 1020.11 1020.15 1020.31 1020.47 1020.63 1020.67 1020.63 1020.71 1020.91 1021.07 1021.23 1021.35 1021.79 1021.99 1022.07 1022.23 1022.35 1022.47 1022.71 1022.19 1021.99 1021.91 1021.87 1021.91 1021.95 1022.07 1022.19 1022.31 1022.35
1019.43 1019.39 1019.43 1019.59 1019.63 1019.75 1019.91 1020.19 1020.39 1020.55 1020.59 1020.71 1020.43 1020.27 1020.31 1020.43 1020.51 1020.67 1020.75 1020.75 1020.83 1020.91 1020.99 1021.11 1021.51 1021.99 1022.03 1022.27 1022.47 1022.63 1022.79 1022.99 1022.55 1022.15 1021.95 1021.83 1021.79 1021.79 1021.87 1021.91 1021.99 1022.07
1020.35 1020.23 1020.03 1019.95 1019.87 1019.95 1020.15 1020.35 1020.55 1020.63 1020.71 1020.75 1020.71 1020.67 1020.67 1020.59 1020.67 1020.67 1020.79 1020.91 1020.99 1021.03 1021.03 1021.11 1021.63 1022.23 1022.15 1022.19 1022.31 1022.43 1022.67 1022.71 1022.43 1022.19 1021.99 1021.87 1021.79 1021.83 1021.83 1021.83 1021.91 1021.99
1020.71 1020.63 1020.75 1020.55 1020.35 1020.23 1020.39 1020.59 1020.59 1020.67 1020.71 1020.67 1020.51 1020.59 1020.59 1020.71 1020.87 1020.87 1020.91 1020.87 1020.91 1020.99 1020.99 1021.11 1021.31 1021.91 1022.19 1022.35 1022.55 1022.63 1022.63 1022.35 1022.19 1022.03 1021.91 1021.91 1021.83 1021.87 1021.91 1021.91 1021.95 1021.95
1021.15 1021.03 1020.95 1020.87 1020.71 1020.71 1020.79 1020.75 1020.75 1020.83 1020.87 1020.75 1020.47 1020.43 1020.51 1020.75 1020.79 1020.75 1020.91 1020.95 1021.03 1021.03 1021.15 1021.15 1021.19 1021.59 1021.99 1022.35 1022.59 1022.67 1022.55 1022.15 1021.91 1021.79 1021.75 1021.79 1021.75 1021.87 1021.79 1021.75 1021.83 1022.11
1021.43 1021.31 1021.27 1021.19 1021.19 1021.23 1021.19 1021.19 1021.19 1021.11 1020.91 1020.71 1020.67 1020.59 1020.75 1020.71 1020.75 1020.71 1020.95 1021.15 1021.23 1021.23 1021.39 1021.39 1021.19 1021.71 1022.43 1022.63 1022.75 1022.87 1022.83 1022.39 1021.95 1021.59 1021.51 1021.51 1021.55 1021.71 1021.99 1022.23 1022.15 1022.39
1021.79 1021.71 1021.71 1021.63 1021.55 1021.59 1021.51 1021.43 1021.27 1021.11 1021.03 1020.95 1020.99 1020.91 1021.03 1021.03 1021.07 1021.07 1021.15 1021.27 1021.39 1021.39 1021.43 1021.47 1021.51 1021.67 1022.47 1022.79 1023.03 1023.07 1022.99 1022.55 1021.99 1021.63 1021.27 1021.23 1021.35 1021.39 1021.71 1021.91 1021.99 1021.95
Wind_Speed
7 7 7 7 6 6 6 6 5 6 5 4 4 4 4 3 4 4 4 4 4 4 3 3 3 3 2 2 2 2 3 3 3 3 3 3 3 4 4 5 5 5
8 8 6 5 5 4 4 4 6 6 5 4 3 4 3 5 4 4 5 5 5 4 4 3 3 3 3 3 3 3 4 4 4 3 4 4 3 4 4 5 5 5
9 8 8 8 7 8 6 4 4 4 5 4 4 4 5 4 5 5 5 6 6 5 4 3 3 3 3 3 2 2 3 4 5 4 4 4 3 3 4 4 4 5
9 9 8 7 7 8 7 6 4 3 4 5 4 4 5 5 6 6 5 5 6 5 4 3 3 3 3 3 3 3 4 4 4 4 5 3 3 3 4 4 4 4
9 7 6 6 6 7 7 7 7 5 5 5 5 5 5 6 6 6 5 5 5 6 4 4 3 3 3 3 3 4 3 4 3 3 4 5 3 3 3 4 5 5
6 6 7 7 8 8 7 7 7 6 6 6 6 5 6 7 7 6 7 6 5 6 6 5 5 4 4 4 3 4 3 4 3 3 5 5 4 3 3 3 5 5
7 6 7 6 7 7 8 7 6 6 6 6 6 5 6 7 7 7 7 6 7 6 7 6 5 5 3 4 4 5 4 4 4 3 6 5 4 4 4 4 4 5
8 7 7 6 7 7 7 7 7 6 6 6 6 6 6 7 7 6 5 6 6 6 6 6 6 6 4 4 5 5 4 2 3 4 5 5 4 5 4 3 4 5
8 8 7 8 8 6 7 7 6 6 6 6 6 6 4 5 7 6 6 6 6 6 6 6 6 6 4 4 4 5 5 4 2 4 5 5 5 5 5 5 5 4
8 8 8 7 7 6 7 6 6 6 5 6 6 6 6 4 5 7 6 6 6 6 5 5 5 5 5 4 5 5 4 4 4 3 3 4 4 4 5 4 5 5
7 8 8 8 6 6 7 7 6 6 5 6 6 6 6 5 5 5 6 6 6 7 6 6 6 6 6 5 4 3 4 3 3 3 3 4 3 3 2 3 3 4
6 7 8 8 6 6 7 7 6 6 6 5 7 7 6 6 6 5 6 7 7 7 7 7 6 6 6 6 5 4 3 2 2 3 3 3 3 3 2 2 3 3
6 6 5 3 4 4 4 5 6 6 7 7 6 8 7 6 6 6 5 5 6 6 6 6 5 5 5 4 4 4 4 4 3 3 3 2 2 2 2 2 2 3
5 5 5 5 3 3 3 3 3 4 4 5 6 7 7 7 7 7 5 4 4 4 4 3 4 4 4 4 4 4 4 4 4 4 4 3 2 2 2 2 2 2
6 8 6 6 4 5 5 4 3 3 3 4 5 5 4 6 6 6 6 5 4 4 4 3 3 4 3 4 4 4 4 5 6 6 5 5 4 3 2 1 2 1
6 7 7 7 6 7 6 5 4 3 3 3 4 4 4 4 5 5 5 5 5 4 3 3 3 2 4 8 8 6 6 5 5 5 6 5 5 4 3 2 2 2
6 5 5 5 5 5 3 5 4 2 2 2 2 2 3 3 4 4 4 4 4 4 3 2 1 1 1 4 5 5 4 4 5 5 6 6 6 6 5 4 3 3
6 6 6 5 4 5 5 1 5 3 3 2 2 3 2 2 3 3 3 3 3 3 2 2 1 4 3 2 3 4 5 3 4 5 6 6 6 6 5 5 5 4
7 7 6 6 5 4 4 4 5 4 3 2 3 3 3 3 2 2 3 3 3 3 2 2 1 4 5 4 4 3 3 5 5 4 6 6 7 6 6 6 5 5
7 8 8 7 6 4 4 5 4 3 2 2 2 3 3 3 3 3 2 3 3 3 3 2 2 4 5 5 6 5 4 2 5 4 5 6 7 7 6 7 7 6
9 9 9 8 7 7 7 7 6 4 4 3 3 3 3 3 3 2 1 1 1 1 2 2 2 6 6 5 5 5 3 2 4 4 5 5 5 6 7 7 7 6
8 7 7 7 7 7 7 7 6 5 4 3 3 2 3 3 3 3 3 2 1 1 0 1 2 5 6 7 8 8 7 4 4 5 6 5 5 5 5 5 5 6
7 8 7 6 6 6 7 7 6 5 4 3 3 4 4 3 3 2 1 1 2 1 1 1 0 4 6 6 6 7 5 3 4 5 5 5 4 3 4 4 4 6
9 8 8 7 8 8 7 6 6 5 5 4 4 4 4 4 2 2 2 2 1 0 1 2 2 4 8 6 5 6 3 3 3 4 5 4 4 4 4 4 5 6
8 9 8 8 9 8 6 6 5 4 3 4 5 5 5 4 3 3 3 3 2 1 1 1 2 3 4 2 2 4 3 3 3 3 4 4 4 4 4 3 3 4
8 9 9 9 8 7 7 6 5 5 6 6 5 4 4 4 4 4 4 4 4 4 4 3 3 3 5 4 3 3 4 3 3 4 5 4 4 3 4 5 5 5
Wind_Direction
158 154 156 160 160 154 156 158 163 155 154 153 148 139 146 125 127 122 108 106 104 109 112 110 115 118 117 121 122 121 111 102 104 124 145 155 154 163 160 164 168 167
158 157 155 153 142 146 156 156 158 158 153 149 130 126 118 126 123 125 125 122 118 113 116 117 117 126 134 131 131 126 117 114 105 115 130 141 143 162 156 158 161 150
162 159 163 164 157 159 157 153 152 153 143 129 121 127 126 124 128 123 128 130 128 127 124 123 122 119 116 108 112 101 101 103 101 114 117 126 146 158 144 152 151 162
168 166 166 156 143 146 147 145 141 135 126 131 139 130 130 133 132 132 130 133 130 129 126 124 120 115 106 104 102 86 81 79 92 111 109 111 129 144 144 150 142 146
168 159 147 139 137 139 146 148 152 153 143 130 129 136 137 137 137 136 135 135 131 128 127 122 117 113 118 118 114 108 94 95 94 114 113 110 113 126 130 147 149 144
147 150 151 148 150 152 156 154 153 151 142 143 147 147 145 144 142 142 144 141 136 132 130 128 125 122 125 123 111 99 109 104 101 112 106 106 116 123 133 142 147 147
152 154 153 153 154 155 149 150 151 154 156 146 139 143 145 145 145 149 149 142 139 139 136 131 127 127 126 128 115 104 92 102 111 104 103 105 115 119 125 136 141 142
157 161 157 157 154 153 148 150 153 158 146 141 142 134 147 147 147 145 145 142 138 136 132 130 131 128 131 126 119 111 102 99 113 106 98 103 112 112 118 115 132 144
157 161 158 159 156 153 149 151 152 150 152 149 136 134 138 146 146 148 146 143 137 137 137 136 136 130 124 124 117 120 119 112 100 107 108 107 104 111 118 122 129 135
161 157 156 159 160 152 147 149 151 149 151 143 136 137 141 132 141 146 142 142 141 141 147 144 139 134 133 131 132 128 127 125 124 116 106 100 97 102 120 131 129 126
153 154 154 159 157 150 147 149 149 145 149 147 138 135 133 138 139 141 145 150 152 159 159 160 156 148 143 142 141 145 139 136 137 128 121 111 101 95 86 93 105 111
147 149 155 156 154 155 155 154 149 150 151 147 150 142 140 146 148 156 161 162 167 168 170 168 162 158 158 158 153 153 148 137 135 133 123 119 122 126 117 100 104 113
136 113 88 84 135 146 147 149 150 149 155 153 153 147 150 151 157 160 165 168 169 170 172 168 161 159 156 156 161 160 159 152 140 135 125 117 113 124 122 120 126 130
117 125 109 95 89 106 109 107 114 133 144 140 148 152 154 158 163 167 158 167 163 170 161 153 151 157 161 159 163 162 158 159 158 151 147 138 135 122 122 136 143 155
102 111 118 119 121 110 109 108 110 118 136 149 151 149 151 158 164 163 156 158 161 170 159 158 171 170 157 153 151 167 168 165 170 169 164 160 154 146 139 152 164 140
92 112 122 114 107 98 96 97 113 127 145 156 153 149 152 149 152 153 156 157 160 161 155 159 181 165 177 187 182 171 179 170 163 167 167 166 164 164 166 191 193 185
99 100 107 105 96 69 52 77 78 88 128 136 120 120 140 150 158 158 157 153 161 160 152 153 135 66 86 203 229 229 189 173 162 163 167 171 179 177 182 185 201 199
95 94 83 83 79 96 90 11 79 61 68 78 107 123 123 144 159 145 131 137 135 144 145 127 131 77 107 180 244 264 285 249 188 166 174 181 191 195 193 194 194 191
87 84 84 80 85 90 96 86 72 50 41 73 107 109 124 128 111 125 129 125 133 140 137 133 167 119 122 147 194 230 259 291 230 203 187 191 198 205 202 201 196 192
69 80 80 79 73 75 79 74 70 64 50 38 74 93 105 104 103 104 114 130 136 141 150 156 157 118 143 159 185 199 212 265 255 234 222 207 202 200 201 204 201 203
53 60 68 71 73 74 73 71 74 74 55 29 26 57 72 83 98 106 92 97 113 138 156 164 106 118 133 151 167 178 156 232 259 257 237 227 214 207 205 208 203 208
41 43 52 63 73 75 75 77 79 77 79 74 76 83 81 88 78 63 56 48 38 71 217 234 109 136 153 171 174 170 152 196 234 245 246 235 224 216 214 213 211 206
42 52 49 43 48 60 63 60 62 68 71 82 97 87 87 80 80 90 88 65 73 69 15 309 181 179 189 191 187 162 159 220 223 238 246 246 236 222 221 219 217 212
39 40 43 38 41 43 43 50 50 47 46 38 57 61 66 67 86 93 79 62 70 110 234 268 260 169 196 196 181 163 230 244 234 229 231 232 230 221 232 223 219 218
42 43 42 44 47 40 37 43 40 40 49 60 58 55 53 46 36 56 75 83 78 53 118 267 322 71 101 104 127 157 206 233 252 244 235 225 216 226 240 263 258 233
42 45 42 41 42 38 34 34 26 35 35 44 43 47 54 51 45 43 42 41 31 25 26 8 1 29 97 110 132 166 234 258 251 258 250 229 218 204 202 210 223 221